Location: Cargill Incorporated Elevator
(42.7294°N, 93.7333°W)
Time: 05:41:01
(UTC+00:00)

Cosmos 1953 - Pass Details

Date: 19 January 2026
Orbit: 474 x 489 km, 82.5° (Epoch: 14 February)

Event Time Altitude Azimuth Distance (km) Brightness Sun altitude
Rises 23:47:01 0° 347° (NNW) 2,582 5.7 -6.8°
Reaches altitude 10° 23:49:10 10° 344° (NNW) 1,694 4.8 -7.1°
Maximum altitude 23:52:48 57° 265° (W) 583 2.9 -7.8°
Drops below altitude 10° 23:56:24 10° 186° (S) 1,675 5.2 -8.4°
Sets 23:58:31 0° 182° (S) 2,548 6.0 -8.7°
